N67748 KORD-

Flight info

Callsign N67748
Flight time N/A
Altitude 5500
Route VFR EAST
Aircraft H125/L-VGDW/C

Departure

Time 2026-05-05 21:04
Airport Chicago O'Hare International Airport (KORD)

Arrival

Time N/A
Airport -
Time Latitude Longitude Altitude Speed Heading
2026-05-05 21:00 41.99967 -87.90638 664 ft 0 kts 360°
2026-05-05 21:03 42.00058 -87.90718 810 ft 45 kts 323°
2026-05-05 21:03 42.00526 -87.90816 957 ft 82 kts 347°
2026-05-05 21:03 42.01129 -87.90585 1116 ft 93 kts 31°
2026-05-05 21:04 42.01315 -87.89685 1214 ft 105 kts 94°
2026-05-05 21:04 42.01220 -87.88686 1176 ft 106 kts 98°
2026-05-05 21:04 42.01256 -87.87780 1419 ft 68 kts 64°
2026-05-05 21:04 42.01385 -87.87036 1102 ft 104 kts 96°
2026-05-05 21:05 42.01066 -87.86113 1067 ft 112 kts 126°
2026-05-05 21:05 42.00875 -87.85157 1198 ft 104 kts 97°
2026-05-05 21:05 42.00768 -87.84158 1094 ft 115 kts 95°
2026-05-05 21:05 42.00773 -87.83038 912 ft 128 kts 83°
2026-05-05 21:06 42.00871 -87.81830 937 ft 134 kts 82°
2026-05-05 21:06 42.00996 -87.80530 915 ft 145 kts 81°
2026-05-05 21:06 42.01141 -87.79243 1075 ft 142 kts 76°
2026-05-05 21:06 42.01399 -87.77954 884 ft 143 kts 71°
2026-05-05 21:07 42.01750 -87.76757 955 ft 129 kts 59°
2026-05-05 21:07 42.02358 -87.76413 1000 ft 111 kts 311°
2026-05-05 21:07 42.02588 -87.77446 972 ft 121 kts 297°
2026-05-05 21:07 42.03097 -87.78126 1299 ft 97 kts 320°
2026-05-05 21:08 42.03791 -87.78597 1039 ft 112 kts 336°
2026-05-05 21:08 42.04524 -87.79042 936 ft 118 kts 334°
2026-05-05 21:08 42.05269 -87.79448 931 ft 115 kts 337°
2026-05-05 21:08 42.05601 -87.79626 933 ft 71 kts 322°
2026-05-05 21:09 43.45455 -80.38237 1029 ft 0 kts 220°
2026-05-05 21:14 43.45452 -80.38235 1029 ft 0 kts 341°
2026-05-05 21:14 43.45453 -80.38236 1029 ft 0 kts 66°